Theta_e
324 321 321 321 321 323 328 332 334 337 339 341 341 339 340 334 333 332 332 333 334 337 338 335 333 332 332 332 331 330 332 333 335 336 335 335 335 334 334 334 335 335 334
324 322 322 321 322 323 327 332 335 337 340 340 340 341 340 335 334 332 332 333 333 336 332 332 332 331 331 331 330 331 333 335 335 335 335 335 335 334 334 335 335 334 334
322 322 322 322 321 322 326 333 337 337 339 339 339 339 339 336 334 333 332 332 331 330 326 328 329 330 331 331 330 332 334 334 334 334 334 334 333 332 333 334 333 333 333
322 323 322 321 320 322 327 333 335 335 334 334 335 338 338 337 335 333 333 331 329 327 328 332 333 331 330 331 330 333 333 333 334 334 334 335 333 332 332 332 332 332 331
323 322 321 320 321 323 328 333 334 333 333 332 335 338 338 337 335 333 333 331 331 327 333 332 333 331 330 330 330 332 333 333 334 337 336 334 332 331 331 331 331 330 330
323 322 320 320 321 324 330 333 333 332 331 335 336 338 338 337 336 334 333 332 333 331 331 331 330 329 333 331 330 330 332 332 333 334 334 333 333 331 331 331 330 329 328
323 321 320 320 321 324 330 333 333 332 331 332 336 337 337 337 336 334 332 332 332 332 333 331 330 331 333 331 331 330 330 331 332 332 334 333 331 330 330 330 328 326 325
323 320 320 321 322 325 329 333 333 332 332 331 333 336 337 336 335 334 333 332 332 332 334 330 330 332 333 332 330 328 327 329 331 333 331 330 330 329 328 327 326 322 319
323 321 321 322 323 326 333 337 335 333 331 331 330 332 335 335 335 335 334 333 331 332 329 329 327 329 331 331 329 327 327 329 332 331 331 329 327 326 320 321 321 316 316
323 322 322 324 324 329 336 337 336 335 332 331 330 331 331 333 335 335 332 328 328 328 326 327 328 326 328 330 329 328 328 329 332 331 329 328 325 320 316 314 314 315 313
325 324 323 325 324 334 336 336 338 336 335 332 331 330 331 331 331 333 329 328 328 327 325 327 327 327 327 330 329 329 329 330 330 329 328 326 325 323 315 316 314 314 313
327 327 324 325 325 327 330 333 335 336 335 334 332 331 331 331 332 332 328 327 328 328 326 328 328 325 326 329 329 330 329 330 329 327 326 323 323 322 318 316 316 316 318
331 330 327 325 326 329 328 333 335 335 334 334 334 332 332 331 331 328 328 329 329 328 327 327 326 325 327 328 330 328 329 327 325 324 325 322 322 321 320 317 316 320 319
337 328 329 326 326 327 330 332 332 333 333 334 334 332 331 330 329 328 329 330 329 325 325 328 324 325 327 328 328 328 326 325 324 323 323 322 321 321 320 320 318 318 318
337 330 330 326 327 328 329 329 329 330 334 333 334 332 331 329 328 329 330 330 326 325 326 325 325 328 328 327 327 325 326 324 323 322 322 321 319 320 319 319 317 318 317
335 338 330 327 328 328 325 325 327 328 330 331 332 332 331 330 331 331 329 329 326 325 325 325 325 328 327 327 325 325 324 323 321 321 321 319 320 319 320 319 319 318 315
333 336 336 330 327 328 327 325 327 329 329 329 331 331 331 331 331 330 327 327 327 326 324 326 325 327 327 327 326 325 324 320 320 320 320 321 321 319 319 319 319 315 314
330 334 336 332 328 328 328 326 326 329 331 329 328 327 327 329 328 327 327 328 327 325 325 324 324 327 327 327 325 324 322 320 320 320 320 320 320 321 319 318 318 317 317
329 333 336 332 330 328 329 328 326 328 331 328 327 327 327 328 327 327 328 327 326 326 325 321 323 326 326 325 325 324 322 322 322 321 321 320 320 320 319 318 319 318 318
326 331 334 334 331 329 330 329 327 329 330 328 325 325 326 328 328 326 326 328 326 326 325 323 323 325 325 325 324 323 322 323 323 322 321 320 320 319 319 318 317 316 314
321 326 332 335 331 330 330 330 328 328 332 328 325 325 325 328 329 327 326 326 327 326 325 324 324 325 324 324 323 322 322 322 322 322 321 321 319 319 319 318 318 317 314
321 320 330 334 328 330 329 330 328 328 330 327 325 325 326 326 326 326 325 326 326 325 325 323 323 324 324 323 322 322 320 320 322 321 320 320 318 318 318 318 318 319 318
324 321 329 333 325 330 330 330 329 328 328 326 324 326 326 327 327 326 327 326 326 326 326 323 323 324 324 323 323 322 321 321 321 322 320 322 319 318 317 318 318 318 317
326 328 330 333 325 329 330 330 329 327 325 323 323 326 326 326 325 326 325 326 326 326 324 323 324 325 323 323 323 323 322 321 321 322 321 320 320 318 312 316 317 317 314
324 329 330 331 326 328 329 330 329 329 326 323 325 325 325 327 327 326 320 325 325 326 325 325 325 325 324 323 321 322 322 322 322 321 321 321 320 318 314 312 315 311 311
324 330 331 327 326 328 330 330 329 328 325 325 323 325 326 326 326 325 324 322 325 324 324 325 324 324 323 323 321 321 322 322 321 320 318 320 318 319 316 315 314 314 314
Wind_Speed
13 8 5 4 4 7 10 13 15 16 17 19 19 19 17 18 17 18 18 19 20 19 17 18 18 18 18 17 15 16 19 20 19 20 22 22 22 22 23 23 21 23 23
13 8 5 3 4 7 11 14 16 18 18 19 19 20 19 20 20 19 20 21 20 19 17 18 19 18 17 17 16 16 19 20 21 21 21 21 22 23 22 21 21 23 22
12 8 5 4 5 7 11 15 18 19 20 20 21 21 21 23 22 22 23 22 20 19 19 20 20 18 17 16 15 18 19 20 21 21 20 19 20 20 19 19 20 19 17
11 7 6 5 5 9 12 15 18 21 21 19 21 23 24 25 24 23 24 22 21 21 22 22 20 18 17 15 17 19 21 21 22 21 18 20 19 18 17 17 17 16 14
14 10 8 6 7 10 13 15 17 19 19 18 21 25 24 25 24 23 24 23 22 23 23 21 20 17 17 19 19 20 20 21 22 17 16 17 17 16 16 16 15 13 11
12 9 7 7 7 9 13 15 17 18 17 16 17 20 22 22 21 20 20 21 22 21 21 19 17 16 21 21 20 19 18 18 16 13 14 16 17 19 19 17 15 11 10
12 10 8 7 8 10 12 16 17 17 17 18 21 22 23 23 22 22 21 19 18 18 18 18 16 17 21 21 20 19 18 16 13 16 15 17 18 19 17 15 13 11 12
13 11 10 8 8 9 10 16 17 17 17 18 20 23 25 25 25 24 22 21 20 18 18 15 13 18 21 21 19 18 17 18 15 16 15 14 16 17 16 15 12 12 12
17 14 12 9 8 10 11 15 16 19 18 19 21 24 27 27 28 27 23 14 15 19 15 16 17 19 22 21 19 17 17 17 15 14 13 11 14 14 15 16 14 13 14
19 17 14 11 9 10 12 16 17 17 19 20 21 23 24 26 28 27 24 15 21 20 20 16 19 21 23 23 20 18 18 18 13 13 10 12 12 15 14 14 16 15 14
23 20 16 13 11 12 14 16 17 18 19 21 21 23 25 24 25 26 29 21 25 16 19 24 22 24 24 23 21 19 16 14 13 10 9 12 15 15 14 15 14 15 16
25 23 18 15 13 14 18 18 18 19 21 22 23 26 26 25 26 24 25 23 19 21 22 23 23 23 24 25 22 19 16 12 11 10 12 12 15 14 15 16 16 17 16
23 25 21 18 15 15 18 19 22 23 24 26 26 27 26 24 25 29 25 23 26 23 23 25 26 23 26 25 24 20 13 13 10 11 15 14 15 15 15 17 17 17 16
22 26 24 20 18 16 15 21 22 25 26 27 30 30 30 31 29 29 28 19 20 24 24 25 27 25 26 24 21 17 14 12 12 11 14 17 15 15 15 17 17 16 16
23 26 27 23 20 19 19 21 23 24 26 26 31 31 32 33 32 32 25 20 25 28 27 26 28 29 28 21 19 17 15 13 14 14 13 19 17 16 15 17 16 18 16
23 23 27 27 22 22 21 23 23 23 24 26 30 31 33 32 31 30 28 26 29 29 27 30 32 28 25 19 18 17 13 12 14 14 14 19 18 17 17 15 16 17 16
23 23 26 29 25 24 22 22 24 24 23 22 26 27 32 35 33 31 31 28 29 30 28 28 32 26 22 19 18 17 14 13 15 16 14 16 18 16 15 15 16 16 16
22 24 25 30 29 26 25 22 23 23 27 25 25 24 25 28 29 26 28 31 32 32 32 32 34 26 23 20 19 17 14 13 15 15 15 14 14 15 17 16 15 15 16
20 23 26 30 32 29 27 24 22 23 26 25 25 27 27 28 29 28 30 32 33 36 34 36 32 33 24 22 20 18 15 14 15 14 16 15 15 16 17 18 17 16 16
18 22 25 28 33 32 29 26 24 25 26 27 25 24 25 26 29 31 31 32 38 39 41 36 39 36 27 23 21 18 15 15 15 14 15 17 15 15 17 17 19 17 18
21 22 26 29 34 35 33 30 28 27 26 27 25 23 23 23 28 29 30 35 38 38 41 38 39 33 29 26 22 20 16 15 14 12 13 14 16 16 15 14 15 14 16
22 25 26 32 37 38 35 32 29 26 27 24 24 23 24 23 20 24 35 44 44 38 39 45 38 32 33 29 27 22 14 13 14 15 14 15 17 17 17 18 18 17 16
23 26 27 32 38 38 34 32 28 21 22 21 22 21 23 17 18 11 27 39 42 45 44 46 40 34 34 30 24 22 14 12 17 16 18 16 17 18 18 19 21 21 20
25 22 25 33 38 38 37 32 29 23 20 20 20 20 21 14 15 12 25 44 43 40 44 43 43 36 35 29 24 23 17 15 21 11 17 18 18 19 22 21 22 22 21
22 22 23 33 35 38 37 32 27 19 15 15 16 20 21 17 19 16 20 21 24 31 36 37 41 37 34 32 32 28 22 16 14 12 14 20 20 22 22 23 23 23 24
22 23 26 34 35 38 37 34 27 21 16 17 20 20 22 21 22 23 25 27 27 30 32 34 37 41 37 34 31 31 25 22 21 18 11 13 17 20 24 25 25 24 22
Wind_Direction
167 161 124 110 206 219 213 206 205 211 208 200 197 199 198 192 186 179 173 170 171 171 176 172 168 165 161 158 155 152 145 143 141 140 136 136 135 133 130 126 124 124 128
174 165 134 132 198 222 216 203 204 205 205 205 203 203 203 198 190 182 177 175 176 175 175 170 166 166 164 161 155 152 150 148 146 143 140 136 135 133 131 129 130 130 132
176 170 171 187 202 227 222 204 196 202 206 210 212 208 206 200 194 185 181 179 178 178 173 169 168 168 166 157 156 156 152 150 145 139 135 129 137 141 138 136 132 138 141
177 191 206 206 220 229 224 206 194 198 206 212 216 210 208 203 197 188 185 183 182 179 173 169 170 172 168 166 163 159 156 150 143 134 128 127 134 141 143 143 143 146 148
188 195 212 221 231 230 224 210 199 197 204 211 215 215 210 204 197 191 188 188 184 182 175 174 177 178 174 167 164 162 158 153 149 124 130 131 133 145 146 146 144 141 146
196 202 212 231 239 238 221 211 205 203 202 202 207 202 198 197 194 190 188 190 187 186 184 182 187 180 173 167 166 166 166 162 138 148 144 149 146 152 154 157 158 156 165
203 215 224 239 246 243 222 212 207 205 205 200 198 195 198 197 196 190 188 191 192 192 191 187 190 181 177 174 173 171 171 161 150 152 145 156 164 163 165 169 172 167 157
213 224 231 238 245 241 218 212 210 206 205 201 203 203 200 200 196 191 187 192 201 204 179 174 195 189 184 182 182 180 175 160 159 146 151 151 169 177 186 186 188 178 164
217 224 232 240 240 234 207 210 208 208 203 202 205 210 207 204 199 198 193 198 228 230 205 208 205 206 192 188 187 185 179 159 155 149 140 171 177 198 192 192 193 176 163
220 226 229 234 232 218 217 214 211 213 206 204 208 207 208 206 205 196 190 249 246 225 240 230 209 209 201 188 189 185 178 171 162 156 160 193 182 188 174 174 172 164 161
222 225 226 231 229 209 218 225 214 216 214 207 210 212 211 212 215 206 218 260 209 235 234 217 208 208 200 188 186 183 175 166 161 167 186 214 178 177 171 164 163 156 152
224 225 224 228 230 222 215 217 216 221 213 213 210 210 211 210 204 203 227 222 231 240 235 216 203 199 195 184 183 180 163 172 173 185 211 211 179 174 165 164 159 150 152
229 228 226 228 228 221 224 219 220 217 222 212 215 214 204 202 206 213 224 234 246 232 215 214 194 199 191 181 182 172 177 178 182 173 215 182 176 175 167 160 156 156 160
228 238 227 226 227 226 219 221 222 223 224 221 215 216 215 217 220 223 227 241 215 197 204 199 190 189 189 176 174 175 178 174 183 172 213 177 182 175 172 161 165 162 165
229 238 227 224 225 223 218 224 223 221 222 224 222 220 222 223 226 235 234 217 208 202 204 208 191 190 186 175 173 178 174 176 176 173 182 180 182 178 180 171 172 171 173
226 225 227 224 225 226 229 233 229 223 225 225 226 227 224 227 230 234 236 218 211 209 207 207 189 191 184 173 175 176 179 182 174 169 177 171 181 184 179 178 180 180 181
227 221 225 225 225 226 228 232 230 226 223 228 232 236 235 236 240 238 227 218 212 207 201 211 196 191 177 172 176 177 175 176 170 165 177 175 183 187 187 182 194 188 189
225 222 219 227 225 226 225 232 229 228 225 229 232 237 241 240 239 224 218 212 209 204 200 188 188 178 176 175 176 179 168 174 171 169 170 177 182 183 189 197 200 196 191
227 219 217 224 227 226 224 228 228 228 224 227 233 239 241 242 232 223 214 212 209 200 194 175 201 194 178 178 176 177 168 174 174 176 179 181 189 190 191 198 201 206 201
232 223 217 220 227 224 224 224 226 226 223 229 233 239 245 242 232 231 225 218 218 211 201 195 195 198 184 178 176 176 168 180 183 181 188 183 195 201 189 196 207 210 210
238 232 218 212 224 220 221 218 224 226 225 230 234 236 241 245 243 231 222 213 215 214 200 192 191 185 181 174 172 167 173 181 184 188 190 191 201 200 200 202 208 209 225
240 241 220 212 223 219 220 220 226 227 231 233 234 235 238 240 240 241 231 221 214 216 198 187 190 183 184 176 174 174 164 183 192 197 199 194 203 205 208 205 213 212 213
241 238 222 210 221 215 214 215 221 222 227 227 226 226 230 240 242 225 217 205 207 213 192 189 191 186 185 188 188 186 175 196 190 206 205 204 208 205 209 215 218 219 217
242 228 216 211 217 211 212 213 216 218 224 224 219 216 230 208 212 188 197 192 199 196 186 193 199 195 195 189 194 198 203 204 188 190 211 214 215 216 222 216 223 223 222
238 224 209 214 212 209 211 210 212 207 212 211 200 210 206 198 207 205 179 179 184 189 193 197 197 193 199 196 200 197 196 193 198 205 202 209 219 225 226 229 224 226 230
227 213 204 214 208 207 206 207 208 204 201 200 196 207 199 200 205 206 194 193 195 199 202 202 206 207 210 213 216 207 207 200 199 198 204 206 222 228 227 228 227 232 243